Погода в Гочобе

Россия / Республика Дагестан     42°14′18″N   46°39′42″E
темп.,
°C
ветер,
м/с
пор.,
м/с
влажн.,
%
обл.,
%
осадки,
мм/ч
давл.,
гПа
погр.,
м
25 июня, сб
сб2500:00+8ююз558624 0.8 101278
03:00+8юз55856 0.8 101366
06:00+11ююз45801 0.0 1011157
09:00+16юз25524 0.3 10091627
12:00+18юз054956 1.2 10082024
15:00+18ю274932 2.8 10082045
18:00+15с026568 1.6 1010358
21:00+10зюз2279100 2.6 101316
26 июня, вс
вс2600:00+10юз338697 1.4 101345
03:00+9ююз3280100 1.7 101220
06:00+12ююз2275100 0.1 101054
09:00+15ююв236388 0.4 10091048
12:00+16св236692 2.3 1008736
15:00+15св317358 7.5 1008585
18:00+13в2286100 4.5 1010221
21:00+10ю228872 7.1 101344
27 июня, пн
пн2700:00+10юз118481 0.6 101313
03:00+9ююз32781 0.6 101316
06:00+13юз11712 0.0 101255
09:00+16св31660 0.0 1011593
12:00+17св437015 0.9 1012831
15:00+16св438138 3.3 1012613
18:00+13св2396100 2.9 1014281
21:00+11всв1199100 3.4 101671
28 июня, вт
вт2800:00+11юз0091100 0.3 101410
03:00+10юз11898 0.4 101411
06:00+12юз22750 0.0 101286
09:00+17ссв23630 0.0 1010835
12:00+17св436812 0.6 10101111
15:00+16св427743 2.4 1011622
18:00+13св229060 1.3 1014312
21:00+11с229369 1.8 101573
29 июня, ср
ср2900:00+10зсз0098100 0.9 101685
03:00+9вюв119841 1.4 101525
06:00+9всв119574 0.0 1016178
09:00+12всв218496 0.1 1015638
12:00+12св328977 1.6 1015383
15:00+12св328979 3.7 1015439
18:00+11всв229076 0.7 1016342
21:00+9в119558 0.8 101777